Lexington Weather

Lexington, Massachusetts, USA

74°F
8/7/2020 11:47am 
  • Lexington Conditions: Clear
  • Temperature: 73.8°F / 23.2°CWarmer 2.6°F than last hour.
  • Dew Point: 64.6°FIncreased 1.3°Fsince last hour.
  • Relative Humidity: 73%Decreased 3.0% since last hour.
  • Wind: Calm, 10-min avg: Calm, gust: 2 mph
  • Barometer: 30.13 inFalling 0.02  inHg/hr Falling Slowly
  • Visibility: 10 miles
  • Rain Today: 0.00 in
  •   

Regional Weather Roundup
for Boston / Norton, MA

        
000
ASUS41 KBOX 040005
RWRBOX

REGIONAL WEATHER ROUNDUP
NATIONAL WEATHER SERVICE BOSTON/NORTON MA
800 PM EDT MON AUG 03 2020

NOTE:  "FAIR" INDICATES FEW OR NO CLOUDS BELOW 12,000 FEET WITH NO 
SIGNIFICANT WEATHER AND/OR OBSTRUCTIONS TO VISIBILITY.

MAZALL-040100-
EASTERN MASSACHUSETTS
  
CITY           SKY/WX    TMP DP  RH WIND       PRES   REMARKS
BOSTON         MOCLDY    85  62  46 NW12      30.00R                  
6HR MIN TEMP:  85; 6HR MAX TEMP:  92;                                

BEVERLY        PTCLDY    83  61  47 NW8       30.00R                  
LAWRENCE       PTCLDY    82  60  47 W7        30.03R                  
BEDFORD        PTCLDY    81  64  56 NW5       30.00R                  
BLUE HILL      NOT AVBL                                               
NORWOOD        PTCLDY    85  64  49 W7        30.00R                  
MARSHFIELD     CLEAR     84  66  54 SW6       30.00R                  
PLYMOUTH       CLEAR     82  65  56 SW9       30.02R                  
TAUNTON        CLEAR     83  65  54 SW6       30.01R                  
NEW BEDFORD    CLEAR     79  68  69 SW12      30.02R                  
$$

MAZALL-040100-
CAPE COD AND THE ISLANDS
  
CITY           SKY/WX    TMP DP  RH WIND       PRES   REMARKS
FALMOUTH       CLEAR     77  70  78 W13G21    30.03R                  
HYANNIS        CLEAR     79  70  74 SW13      30.02R                  
CHATHAM        CLEAR     78  70  76 SW9G21    30.04R                  
PROVINCETOWN   CLEAR     76  69  79 SW15      30.02R                  
NANTUCKET      CLEAR     74  71  91 SW10      30.06R FOG              
MARTHAS VNYRD  CLEAR     76  72  87 SW10      30.05R                  
$$
 
MAZALL-040100-
CENTRAL AND WESTERN MASSACHUSETTS
  
CITY           SKY/WX    TMP DP  RH WIND       PRES   REMARKS
WORCESTER      PTCLDY    79  63  57 W3        30.07R                  
6HR MIN TEMP:  79; 6HR MAX TEMP:  87;                                

FITCHBURG      CLEAR     80  61  52 NW6       30.03R                  
ORANGE         CLEAR     78  66  66 CALM      30.04R                  
SPRINGFIELD    MOCLDY    81  64  56 N3        30.01R                  
WESTFIELD      PTCLDY    83  65  54 W3        30.02R                  
NORTH ADAMS    NOT AVBL                                               
PITTSFIELD     CLEAR     74  65  73 CALM      30.06R                  
$$
 
RIZALL-040100-
RHODE ISLAND
  
CITY           SKY/WX    TMP DP  RH WIND       PRES   REMARKS
PROVIDENCE     MOCLDY    84  64  50 SW9       30.02R                  
6HR MIN TEMP:  84; 6HR MAX TEMP:  94;                                

NEWPORT        CLEAR     78  69  73 SW8       30.04R                  
BLOCK ISLAND   CLEAR     75  71  87 SW14      30.06R                  
SMITHFIELD     PTCLDY    80  64  58 W3        30.03R                  
WESTERLY       PTCLDY    78  68  71 SW5       30.04R                  
$$
 
CTZALL-040100-
CONNECTICUT
  
CITY           SKY/WX    TMP DP  RH WIND       PRES   REMARKS
BRADLEY INTL   MOCLDY    84  61  45 SW7       30.01R                  
6HR MIN TEMP:  84; 6HR MAX TEMP:  92;                                

HARTFORD       PTCLDY    87  61  41 W5        30.01R                  
BRIDGEPORT     MOCLDY    81  72  74 SW5       30.03R                  
DANBURY        CLOUDY    79  65  62 SW3       30.05R                  
GROTON         PTCLDY    76  71  85 SW9       30.03R                  
NEW HAVEN      MOCLDY    82  73  74 S8        30.03R                  
CHESTER        NOT AVBL                                               
MERIDEN        MOCLDY    81  65  58 CALM      30.02R                  
WILLIMANTIC    PTCLDY    83  63  50 S3        30.02R                  
OXFORD         MOCLDY    81  64  56 CALM      30.06R                  
$$

MEZ002-015-021-024-NHZ003-005-008-011-012-014-VTZ005-008-040100-
NORTHERN NEW ENGLAND
  
CITY           SKY/WX    TMP DP  RH WIND       PRES   REMARKS
PORTLAND ME    CLEAR     82  60  47 W7        29.98R                  
6HR MIN TEMP:  82; 6HR MAX TEMP:  91;                                

BANGOR ME      PTCLDY    76  59  55 W8G17     29.94R                  
CONCORD NH     CLEAR     80  60  50 W7        30.01R                  
MANCHESTER NH  PTCLDY    84  59  42 W7        30.01R                  
NASHUA NH      PTCLDY    81  61  50 W3        30.03R                  
PORTSMOUTH NH  PTCLDY    81  60  47 W3        29.98                   
JAFFREY NH     CLEAR     74  62  66 CALM      30.07R                  
KEENE NH       CLEAR     75  64  68 CALM      30.04R                  
BURLINGTON VT  PTCLDY    77  60  55 CALM      30.03R                  
MT. WASHINGTON NOT AVBL                                               
$$

NYZ052-076-040100-
EASTERN NEW YORK
  
CITY           SKY/WX    TMP DP  RH WIND       PRES   REMARKS
ALBANY         MOCLDY    77  60  55 N5        30.02S                  
6HR MIN TEMP:  77; 6HR MAX TEMP:  82;                                

NEW YORK CITY  CLOUDY    86  68  54 S9        30.02R                  
6HR MIN TEMP:  86; 6HR MAX TEMP:  93;                                

$$
 
ANZALL-040100-
MARINE OBSERVATIONS
  
STATION/POSITION TIME  TEMP    WIND        PRES    VSBY  WAVE
                       AIR SEA DIR/SP/G                  HT/PER
                 (UTC) (F)     (DEG/KT/KT) (MB)    (MI)  (FT/S)
BOSTON BUOY      2350   76 71  270/  8/  8 1014.4R         1/ 9
BUZZARDS BAY     2300          230/ 21/ 22 1017.2R
NANTUCKET SOUND  2340      76  230/ 17/ 21   N/A
MASS BAY-STELLWA NOT AVBL
ISLE OF SHOALS   NOT AVBL
S OF BLOCK IS    2326      74                N/A           5/ 7
$$

......................KEY.........................
  SKY/WX - SKY CONDITION/PRESENT WEATHER
  TMP    - TEMPERATURE IN FAHRENHEIT
  DWPT   - DEWPOINT IN FAHRENHEIT
  RH     - RELATIVE HUMIDITY IN PERCENT
  WIND   - DIRECTION AND SPEED IN MPH
  PRES   - MEAN SEA LEVEL PRESSURE IN INCHES OF HG
  WCI    - WIND CHILL INDEX
  VSB    - VISIBILITY IN MILES
  HX     - HEAT INDEX
  TC     - TEMPERATURE IN CELSIUS
  VRB    - VARIABLE WIND DIRECTION
  N/A    - NOT AVAILABLE
  
      

Other recent Regional Weather Roundups

Fri Aug 7, 11:04am

Fri Aug 7, 10:04am

Fri Aug 7, 9:04am

Fri Aug 7, 8:04am

Fri Aug 7, 7:04am

Fri Aug 7, 6:04am

Fri Aug 7, 5:04am

Fri Aug 7, 4:04am

Fri Aug 7, 3:04am

Fri Aug 7, 2:04am

Fri Aug 7, 1:05am

Fri Aug 7, 12:04am

Thu Aug 6, 11:04pm

Thu Aug 6, 10:04pm

Thu Aug 6, 9:04pm

Thu Aug 6, 8:04pm

Thu Aug 6, 7:04pm

Thu Aug 6, 6:04pm

Thu Aug 6, 5:04pm

Thu Aug 6, 4:05pm

Thu Aug 6, 3:04pm

Thu Aug 6, 2:05pm

Thu Aug 6, 1:04pm

Thu Aug 6, 12:04pm

Thu Aug 6, 11:04am

Thu Aug 6, 10:04am

Thu Aug 6, 9:04am

Thu Aug 6, 8:04am

Thu Aug 6, 7:04am

Thu Aug 6, 6:04am

Thu Aug 6, 5:04am

Thu Aug 6, 4:04am

Thu Aug 6, 3:04am

Thu Aug 6, 2:05am

Thu Aug 6, 1:04am

Thu Aug 6, 12:04am

Wed Aug 5, 11:04pm

Wed Aug 5, 10:04pm

Wed Aug 5, 9:04pm

Wed Aug 5, 8:05pm

Wed Aug 5, 7:04pm

Wed Aug 5, 6:04pm

Wed Aug 5, 5:04pm

Wed Aug 5, 4:05pm

Wed Aug 5, 3:04pm

Wed Aug 5, 2:04pm

Wed Aug 5, 1:04pm

Wed Aug 5, 12:04pm

Wed Aug 5, 11:04am

Wed Aug 5, 10:04am

Wed Aug 5, 9:04am

Wed Aug 5, 8:04am

Wed Aug 5, 7:04am

Wed Aug 5, 6:04am

Wed Aug 5, 5:04am

Wed Aug 5, 4:04am

Wed Aug 5, 3:04am

Wed Aug 5, 2:05am

Wed Aug 5, 1:04am

Wed Aug 5, 12:05am

Tue Aug 4, 11:05pm

Tue Aug 4, 10:05pm

Tue Aug 4, 9:04pm

Tue Aug 4, 8:04pm

Tue Aug 4, 7:05pm

Tue Aug 4, 6:05pm

Tue Aug 4, 5:05pm

Tue Aug 4, 4:05pm

Tue Aug 4, 3:04pm

Tue Aug 4, 2:05pm

Tue Aug 4, 1:04pm

Tue Aug 4, 12:05pm

Tue Aug 4, 11:04am

Tue Aug 4, 10:04am

Tue Aug 4, 9:04am

Tue Aug 4, 8:04am

Tue Aug 4, 7:04am

Tue Aug 4, 6:04am

Tue Aug 4, 5:04am

Tue Aug 4, 4:04am

Tue Aug 4, 3:04am

Tue Aug 4, 2:04am

Tue Aug 4, 1:04am

Tue Aug 4, 12:04am

Mon Aug 3, 11:04pm

Mon Aug 3, 10:04pm

Mon Aug 3, 9:04pm

Mon Aug 3, 7:04pm

Mon Aug 3, 6:04pm

Mon Aug 3, 5:04pm

Mon Aug 3, 4:05pm

Mon Aug 3, 3:04pm

Mon Aug 3, 2:04pm

Mon Aug 3, 1:04pm

Mon Aug 3, 12:05pm

Mon Aug 3, 11:04am

Mon Aug 3, 10:04am

Mon Aug 3, 9:05am

Mon Aug 3, 8:04am

Mon Aug 3, 7:04am

Mon Aug 3, 6:04am

Mon Aug 3, 5:04am

Mon Aug 3, 4:04am

Mon Aug 3, 3:04am

Mon Aug 3, 2:04am

Mon Aug 3, 1:04am

Mon Aug 3, 12:05am

Sun Aug 2, 11:04pm

Sun Aug 2, 10:04pm

Sun Aug 2, 9:04pm

Sun Aug 2, 8:04pm

Sun Aug 2, 7:04pm

Sun Aug 2, 6:04pm

Sun Aug 2, 5:04pm

Sun Aug 2, 4:05pm

Sun Aug 2, 3:04pm

Sun Aug 2, 2:05pm

Sun Aug 2, 1:04pm

Sun Aug 2, 12:04pm

Sun Aug 2, 11:04am

Sun Aug 2, 10:04am

Sun Aug 2, 9:05am

Sun Aug 2, 8:05am

Sun Aug 2, 7:04am

Sun Aug 2, 6:04am

Sun Aug 2, 5:04am

Sun Aug 2, 4:05am

Sun Aug 2, 3:04am

Sun Aug 2, 2:04am

Sun Aug 2, 1:04am

Sun Aug 2, 12:05am

Sat Aug 1, 11:04pm

Sat Aug 1, 10:04pm

Sat Aug 1, 9:04pm

Sat Aug 1, 8:05pm

Sat Aug 1, 7:04pm

Sat Aug 1, 6:04pm

Sat Aug 1, 5:05pm

Sat Aug 1, 4:05pm

Sat Aug 1, 3:04pm

Sat Aug 1, 2:04pm

Sat Aug 1, 1:04pm

Sat Aug 1, 12:04pm

Sat Aug 1, 11:05am

Sat Aug 1, 10:05am

Sat Aug 1, 9:04am

Sat Aug 1, 8:04am

Sat Aug 1, 7:04am

Sat Aug 1, 6:04am

Sat Aug 1, 5:04am

Sat Aug 1, 4:05am

Sat Aug 1, 3:04am

Sat Aug 1, 2:04am

Sat Aug 1, 1:04am

Sat Aug 1, 12:05am

Fri Jul 31, 11:05pm

Fri Jul 31, 10:04pm

Fri Jul 31, 9:04pm

Fri Jul 31, 8:05pm

Fri Jul 31, 7:05pm

Fri Jul 31, 6:04pm

Fri Jul 31, 5:04pm

Fri Jul 31, 4:05pm

Fri Jul 31, 3:04pm

Fri Jul 31, 2:05pm

Fri Jul 31, 1:04pm

Fri Jul 31, 12:04pm

Meta data:

ID: 73a81317-4224-4378-ad17-58df5e458b0e
Link: https://api.weather.gov/products/73a81317-4224-4378-ad17-58df5e458b0e